Terminal Aerodrome Forecast
Issued by NWS Bismarck, ND

Home | Current Version | Previous Version | Graphics & Text | Print | Product List | Glossary On
Versions: 1 2 3 4 5 6 7 8 9 10 11 12 13 14 15 16 17 18 19 20 21 22
000
FTUS43 KBIS 250540
TAFBIS
TAF
KBIS 250540Z 2506/2606 12005KT P6SM -SHRA VCTS OVC060CB
     FM251100 10005KT P6SM BKN050
     FM252100 13005KT P6SM VCTS BKN045CB
     FM260200 26006KT P6SM OVC050=

USA.gov is the U.S. government's official web portal to all federal, state and local government web resources and services.